FW9074 Weather Reports


Display with metric or nautical units.
time (UTC)temp
F
wind
direction
speed
MPH
gust
MPH
rain 1hr
in
rain 24hr
in
rain mn
in
humidity
%
barometer
mb
20260505063918 58 164 0.0 0.0 0.00 0.00 0.00 76 1011.4
20260505063413 58 164 0.0 0.0 0.00 0.00 0.00 76 1011.1
20260505062910 57 164 0.0 0.0 0.00 0.00 0.00 77 1010.9
20260505062408 58 165 0.0 0.0 0.00 0.00 0.00 76 1011.1
20260505061904 58 165 0.0 0.0 0.00 0.00 0.00 76 1011.0
20260505061403 58 164 0.0 0.0 0.00 0.00 0.00 76 1011.1
20260505060859 58 164 0.0 0.0 0.00 0.00 0.00 75 1011.0
20260505060356 59 165 0.0 0.0 0.00 0.00 0.00 75 1011.0
20260505055852 59 164 0.0 0.0 0.00 0.00 0.00 74 1011.3
20260505055348 59 165 0.0 0.0 0.00 0.00 0.00 73 1011.0
20260505054846 59 164 0.0 0.0 0.00 0.00 0.00 73 1011.4
20260505054343 60 164 0.0 0.0 0.00 0.00 0.00 72 1011.3
20260505053841 60 164 0.0 0.0 0.00 0.00 0.00 71 1011.1
20260505053338 60 164 0.0 0.0 0.00 0.00 0.00 71 1010.9
20260505052834 60 164 0.0 0.0 0.00 0.00 0.00 70 1011.0
20260505052331 60 164 0.0 0.0 0.00 0.00 0.00 68 1010.7
20260505051828 61 164 0.0 0.0 0.00 0.00 0.00 68 1011.3
20260505051326 62 164 0.0 0.0 0.00 0.00 0.00 66 1010.7
20260505050824 62 164 0.0 0.0 0.00 0.00 0.00 65 1010.8
20260505050322 62 164 0.0 0.0 0.00 0.00 0.00 65 1010.9
20260505041752 65 164 0.0 0.0 0.00 0.00 0.00 60 1010.1
20260505041249 66 164 0.0 0.0 0.00 0.00 0.00 59 1010.2
20260505040747 66 164 0.0 0.0 0.00 0.00 0.00 57 1010.0
20260505040244 65 164 0.0 0.0 0.00 0.00 0.00 56 1010.1
20260505035741 65 164 0.0 0.0 0.00 0.00 0.00 57 1009.9
20260505035236 65 164 0.0 0.0 0.00 0.00 0.00 57 1009.8
20260505034733 65 164 0.0 0.0 0.00 0.00 0.00 57 1009.9
20260505034230 65 164 0.0 0.0 0.00 0.00 0.00 56 1009.8
20260505033727 66 164 0.0 0.0 0.00 0.00 0.00 56 1009.6
20260505033225 66 164 0.0 0.0 0.00 0.00 0.00 55 1009.6
20260505032723 67 164 0.0 0.0 0.00 0.00 0.00 55 1009.4
20260505032218 67 164 0.0 0.0 0.00 0.00 0.00 52 1009.4
20260505031716 68 164 0.0 0.0 0.00 0.00 0.00 51 1009.3
20260505031212 68 164 0.0 0.0 0.00 0.00 0.00 49 1009.3
20260505030709 69 164 0.0 0.0 0.00 0.00 0.00 50 1009.3
20260505030205 70 164 0.0 0.0 0.00 0.00 0.00 47 1009.3
20260505025701 70 164 0.0 0.0 0.00 0.00 0.00 45 1009.2
20260505025159 71 164 0.0 0.0 0.00 0.00 0.00 45 1009.3
20260505024657 72 164 0.0 0.0 0.00 0.00 0.00 47 1009.3
20260505024154 72 164 0.0 0.0 0.00 0.00 0.00 42 1009.2
20260505023651 72 164 0.0 0.0 0.00 0.00 0.00 41 1009.3
20260505023148 73 164 0.0 0.0 0.00 0.00 0.00 41 1009.1
20260505022646 73 164 0.0 0.0 0.00 0.00 0.00 40 1009.1
20260505022143 73 164 0.0 0.0 0.00 0.00 0.00 41 1009.3
20260505021639 73 164 0.0 0.0 0.00 0.00 0.00 40 1009.3
20260505021136 73 164 0.0 0.0 0.00 0.00 0.00 42 1009.2
20260505020632 73 164 0.0 0.0 0.00 0.00 0.00 43 1009.3
20260505020128 73 164 0.0 0.0 0.00 0.00 0.00 39 1009.3
20260505015625 73 164 0.0 0.0 0.00 0.00 0.00 38 1009.3
20260505015122 74 164 0.0 0.0 0.00 0.00 0.00 38 1009.2
20260505014618 74 164 0.0 0.0 0.00 0.00 0.00 38 1009.2
20260505014115 74 164 0.0 0.0 0.00 0.00 0.00 36 1009.5
20260505013608 75 164 0.0 0.0 0.00 0.00 0.00 35 1009.2
20260505013105 75 164 1.0 3.0 0.00 0.00 0.00 34 1009.4
20260505012603 76 164 0.0 0.0 0.00 0.00 0.00 35 1009.2
20260505012059 76 164 0.0 0.0 0.00 0.00 0.00 34 1009.3
20260505011555 76 164 0.0 0.0 0.00 0.00 0.00 35 1009.5
20260505011053 76 164 0.0 1.0 0.00 0.00 0.00 35 1009.6
20260505010548 76 164 0.0 0.0 0.00 0.00 0.00 34 1009.4
20260505010044 76 164 0.0 0.0 0.00 0.00 0.00 35 1009.4
20260505005540 76 164 0.0 1.0 0.00 0.00 0.00 36 1009.4
20260505005038 76 164 0.0 0.0 0.00 0.00 0.00 36 1009.4
20260505004529 76 164 0.0 1.0 0.00 0.00 0.00 35 1009.4
20260505004026 76 164 0.0 1.0 0.00 0.00 0.00 35 1009.9
20260505003523 76 164 0.0 0.0 0.00 0.00 0.00 38 1009.4
20260505003020 76 164 0.0 6.0 0.00 0.00 0.00 36 1009.4
20260505002515 76 164 0.0 1.0 0.00 0.00 0.00 35 1009.4
20260505002015 76 164 0.0 2.0 0.00 0.00 0.00 35 1009.6
20260505001511 76 164 0.0 0.0 0.00 0.00 0.00 37 1009.5
20260505001008 76 164 0.0 5.0 0.00 0.00 0.00 35 1009.4
20260505000506 76 164 0.0 0.0 0.00 0.00 0.00 38 1009.4
20260505000003 76 164 0.0 3.0 0.00 0.00 0.00 38 1009.6
20260504235500 76 164 1.0 2.0 0.00 0.00 0.00 36 1009.5
20260504234956 76 164 0.0 2.0 0.00 0.00 0.00 35 1009.5
20260504234454 76 164 0.0 2.0 0.00 0.00 0.00 37 1009.6
20260504233950 76 164 0.0 2.0 0.00 0.00 0.00 37 1009.4
20260504233445 76 164 1.0 3.0 0.00 0.00 0.00 36 1009.4
20260504232943 76 164 4.0 7.0 0.00 0.00 0.00 34 1009.6
20260504232440 76 164 0.0 1.0 0.00 0.00 0.00 35 1009.6
20260504231937 76 164 0.0 0.0 0.00 0.00 0.00 36 1009.5
20260504231433 76 164 1.0 1.0 0.00 0.00 0.00 35 1009.5
20260504230930 76 164 0.0 0.0 0.00 0.00 0.00 36 1009.6
20260504230426 76 164 2.0 6.0 0.00 0.00 0.00 35 1009.7
20260504225926 76 164 0.0 0.0 0.00 0.00 0.00 37 1009.6
20260504225422 76 164 0.0 0.0 0.00 0.00 0.00 33 1009.9
20260504224919 76 164 0.0 0.0 0.00 0.00 0.00 34 1009.9
20260504224416 76 164 0.0 0.0 0.00 0.00 0.00 33 1009.8
20260504223913 76 164 1.0 3.0 0.00 0.00 0.00 34 1009.9
20260504223408 76 164 0.0 0.0 0.00 0.00 0.00 35 1009.9
20260504222904 77 164 0.0 2.0 0.00 0.00 0.00 33 1010.0
20260504222402 76 164 0.0 0.0 0.00 0.00 0.00 34 1010.1
20260504221900 76 164 1.0 2.0 0.00 0.00 0.00 32 1010.1
20260504221356 76 164 0.0 0.0 0.00 0.00 0.00 33 1010.2
20260504220854 76 164 5.0 7.0 0.00 0.00 0.00 33 1010.2
20260504220350 76 164 0.0 6.0 0.00 0.00 0.00 35 1010.4
20260504215847 76 164 0.0 2.0 0.00 0.00 0.00 34 1010.3
20260504215344 76 164 1.0 6.0 0.00 0.00 0.00 35 1010.1
20260504214840 76 164 1.0 6.0 0.00 0.00 0.00 35 1010.3
20260504214337 76 164 0.0 5.0 0.00 0.00 0.00 36 1010.2
20260504213834 75 164 1.0 2.0 0.00 0.00 0.00 36 1010.2
20260504213329 75 164 0.0 0.0 0.00 0.00 0.00 34 1010.2
20260504212827 75 164 0.0 2.0 0.00 0.00 0.00 37 1010.0
20260504212323 75 164 0.0 0.0 0.00 0.00 0.00 40 1010.2
20260504211821 75 164 0.0 0.0 0.00 0.00 0.00 37 1010.2
20260504211317 75 164 0.0 5.0 0.00 0.00 0.00 35 1010.3
20260504210814 75 164 0.0 2.0 0.00 0.00 0.00 37 1010.3
20260504210311 75 164 0.0 2.0 0.00 0.00 0.00 38 1010.4
20260504205809 75 164 0.0 0.0 0.00 0.00 0.00 41 1010.4
20260504205306 75 164 0.0 1.0 0.00 0.00 0.00 40 1010.5
20260504204804 74 164 0.0 1.0 0.00 0.00 0.00 40 1010.5
20260504204302 74 164 0.0 1.0 0.00 0.00 0.00 38 1010.5
20260504203802 74 164 0.0 0.0 0.00 0.00 0.00 42 1010.6
20260504203258 74 164 0.0 0.0 0.00 0.00 0.00 44 1010.8
20260504202753 73 164 0.0 1.0 0.00 0.00 0.00 38 1010.6
20260504202250 73 164 0.0 1.0 0.00 0.00 0.00 39 1010.6
20260504201747 73 164 0.0 1.0 0.00 0.00 0.00 39 1010.5
20260504201244 73 164 0.0 1.0 0.00 0.00 0.00 39 1010.5
20260504200742 73 164 0.0 1.0 0.00 0.00 0.00 40 1010.4
20260504200238 73 164 0.0 0.0 0.00 0.00 0.00 43 1010.7
20260504195734 73 164 0.0 0.0 0.00 0.00 0.00 45 1010.7
20260504195230 73 164 0.0 1.0 0.00 0.00 0.00 41 1010.7
20260504194727 73 164 0.0 1.0 0.00 0.00 0.00 41 1010.7
20260504194044 73 164 0.0 0.0 0.00 0.00 0.00 45 1010.7
20260504193541 73 164 0.0 0.0 0.00 0.00 0.00 45 1010.7
20260504193039 73 164 1.0 2.0 0.00 0.00 0.00 42 1010.5
20260504192537 72 164 0.0 0.0 0.00 0.00 0.00 46 1010.9
20260504192035 72 164 0.0 3.0 0.00 0.00 0.00 43 1010.9
20260504191533 72 164 0.0 1.0 0.00 0.00 0.00 43 1011.0
20260504191029 72 164 0.0 0.0 0.00 0.00 0.00 43 1011.0
20260504190525 72 164 0.0 0.0 0.00 0.00 0.00 43 1011.0
20260504190021 72 164 0.0 0.0 0.00 0.00 0.00 45 1011.0
20260504185518 71 164 0.0 0.0 0.00 0.00 0.00 44 1011.0
20260504185015 71 164 1.0 3.0 0.00 0.00 0.00 43 1010.8
20260504184510 71 164 0.0 0.0 0.00 0.00 0.00 46 1011.0
20260504184006 71 164 0.0 0.0 0.00 0.00 0.00 47 1011.1
20260504183503 71 164 0.0 0.0 0.00 0.00 0.00 48 1010.7
20260504183001 71 164 0.0 0.0 0.00 0.00 0.00 45 1011.0
20260504182458 70 164 0.0 0.0 0.00 0.00 0.00 48 1011.0
20260504181955 70 164 0.0 0.0 0.00 0.00 0.00 48 1011.1
20260504181452 70 164 0.0 0.0 0.00 0.00 0.00 51 1011.0
20260504180950 69 164 0.0 0.0 0.00 0.00 0.00 51 1011.1
20260504180449 69 164 0.0 0.0 0.00 0.00 0.00 51 1011.0
20260504175947 69 164 0.0 2.0 0.00 0.00 0.00 50 1011.0
20260504175444 69 164 0.0 0.0 0.00 0.00 0.00 51 1011.0
20260504174941 69 164 0.0 0.0 0.00 0.00 0.00 50 1011.1
20260504174439 68 164 0.0 0.0 0.00 0.00 0.00 51 1010.9
20260504173936 68 164 0.0 1.0 0.00 0.00 0.00 50 1011.3
20260504173432 68 164 0.0 0.0 0.00 0.00 0.00 53 1011.0
20260504172930 68 164 0.0 0.0 0.00 0.00 0.00 51 1010.9
20260504172426 68 164 0.0 0.0 0.00 0.00 0.00 52 1011.0
20260504171922 67 164 0.0 0.0 0.00 0.00 0.00 52 1011.1
20260504171420 67 164 0.0 0.0 0.00 0.00 0.00 53 1010.9
20260504170917 67 164 0.0 0.0 0.00 0.00 0.00 51 1010.9
20260504170413 67 164 0.0 0.0 0.00 0.00 0.00 47 1010.8
20260504160332 67 164 0.0 0.0 0.00 0.00 0.00 54 1010.7
20260504150756 63 164 0.0 0.0 0.00 0.00 0.00 63 1010.4
20260504150253 63 164 0.0 0.0 0.00 0.00 0.00 61 1010.1
20260504141223 55 165 0.0 0.0 0.00 0.00 0.00 71 1009.9
20260504140720 54 165 0.0 0.0 0.00 0.00 0.00 70 1009.9
20260504140215 54 164 0.0 0.0 0.00 0.00 0.00 69 1010.0
20260504130643 53 164 0.0 0.0 0.00 0.00 0.00 70 1009.4
20260504130140 53 164 0.0 0.0 0.00 0.00 0.00 70 1009.4
20260504120104 52 164 0.0 0.0 0.00 0.00 0.00 70 1009.4
20260504110531 53 164 0.0 0.0 0.00 0.00 0.00 72 1009.4
20260504100448 55 165 0.0 0.0 0.00 0.00 0.00 67 1009.3
20260504081841 56 165 0.0 0.0 0.00 0.00 0.00 70 1009.6
20260504081337 57 165 0.0 0.0 0.00 0.00 0.00 70 1009.3
20260504080833 57 165 0.0 0.0 0.00 0.00 0.00 69 1009.6
20260504080331 57 165 0.0 0.0 0.00 0.00 0.00 70 1009.7
20260504070258 57 165 0.0 0.0 0.00 0.00 0.00 75 1009.6